Location: Eckley Miners' Village
(40.9930°N, 75.8630°W)
Time: 11:15:31
(UTC-04:00)

Vanguard 1 Rocket - Pass Details

Date: 13 March 2026
Orbit: 654 x 4213 km, 34.3° (Epoch: 11 April)

Event Time Altitude Azimuth Distance (km) Brightness Sun altitude
Rises 11:20:08 0° 262° (W) 2,964 9.8 39.3°
Reaches altitude 10° 11:22:22 10° 253° (WSW) 2,083 9.2 39.5°
Maximum altitude 11:26:33 37° 185° (S) 1,173 9.2 40.0°
Drops below altitude 10° 11:32:13 10° 119° (ESE) 2,849 10.9 40.6°
Sets 11:35:50 0° 112° (ESE) 4,250 11.4 41.0°
